SP6RGZ-1 Weather Reports


Display with metric or nautical units.
time (UTC)temp
F
wind
direction
speed
MPH
gust
MPH
rain 1hr
in
rain 24hr
in
rain mn
in
humidity
%
barometer
mb
20260506181502 64 0.0 0.0 0.00 0.00 0.00 98 986.8
20260506180002 65 0.0 0.0 0.00 0.00 0.00 90 986.2
20260506174502 66 0.0 0.0 0.00 0.00 0.00 79 986.3
20260506173002 66 0.0 0.0 0.00 0.00 0.00 78 986.3
20260506171502 68 0.0 0.0 0.00 0.00 0.00 73 986.4
20260506170002 73 0.0 0.0 0.00 0.00 0.00 49 986.2
20260506164502 74 0.0 0.0 0.00 0.00 0.00 44 985.7
20260506163002 74 0.0 0.0 0.00 0.00 0.00 43 985.7
20260506161502 75 0.0 0.0 0.00 0.00 0.00 42 985.8
20260506160002 76 0.0 0.0 0.00 0.00 0.00 42 985.9
20260506154501 76 0.0 0.0 0.00 0.00 0.00 41 985.9
20260506153002 76 0.0 0.0 0.00 0.00 0.00 40 985.9
20260506151502 77 0.0 0.0 0.00 0.00 0.00 39 985.9
20260506150002 78 0.0 0.0 0.00 0.00 0.00 40 986.0
20260506144502 78 0.0 0.0 0.00 0.00 0.00 40 986.1
20260506143001 79 0.0 0.0 0.00 0.00 0.00 41 986.3
20260506141501 79 0.0 0.0 0.00 0.00 0.00 42 986.5
20260506140002 80 0.0 0.0 0.00 0.00 0.00 41 986.6
20260506134502 80 0.0 0.0 0.00 0.00 0.00 41 986.6
20260506133002 79 0.0 0.0 0.00 0.00 0.00 42 986.8
20260506131502 81 0.0 0.0 0.00 0.00 0.00 40 986.8
20260506130002 79 0.0 0.0 0.00 0.00 0.00 42 986.9
20260506124502 79 0.0 0.0 0.00 0.00 0.00 42 986.8
20260506123002 78 0.0 0.0 0.00 0.00 0.00 44 986.9
20260506121502 78 0.0 0.0 0.00 0.00 0.00 43 986.8
20260506120002 79 0.0 0.0 0.00 0.00 0.00 44 986.9
20260506114502 78 0.0 0.0 0.00 0.00 0.00 46 986.8
20260506113002 77 0.0 0.0 0.00 0.00 0.00 47 986.8
20260506111502 77 0.0 0.0 0.00 0.00 0.00 46 986.9
20260506110002 77 0.0 0.0 0.00 0.00 0.00 47 986.9
20260506104502 76 0.0 0.0 0.00 0.00 0.00 48 986.8
20260506103001 77 0.0 0.0 0.00 0.00 0.00 47 986.8
20260506101502 77 0.0 0.0 0.00 0.00 0.00 48 986.8
20260506100002 79 0.0 0.0 0.00 0.00 0.00 46 986.8
20260506094502 77 0.0 0.0 0.00 0.00 0.00 48 986.7
20260506093002 77 0.0 0.0 0.00 0.00 0.00 51 986.7
20260506091502 76 0.0 0.0 0.00 0.00 0.00 52 986.6
20260506090002 74 0.0 0.0 0.00 0.00 0.00 56 986.6
20260506084502 73 0.0 0.0 0.00 0.00 0.00 58 986.6
20260506083003 72 0.0 0.0 0.00 0.00 0.00 59 986.6
20260506081502 72 0.0 0.0 0.00 0.00 0.00 58 986.4
20260506073002 70 0.0 0.0 0.00 0.00 0.00 64 986.2
20260506071502 69 0.0 0.0 0.00 0.00 0.00 66 986.1
20260506061502 65 0.0 0.0 0.00 0.00 0.00 73 986.1
20260506044502 61 0.0 0.0 0.00 0.00 0.00 77 985.5
20260506043002 58 0.0 0.0 0.00 0.00 0.00 86 985.7
20260506041502 58 0.0 0.0 0.00 0.00 0.00 85 985.3
20260506040002 56 0.0 0.0 0.00 0.00 0.00 88 985.0
20260506034502 55 0.0 0.0 0.00 0.00 0.00 95 984.8
20260506024502 53 0.0 0.0 0.00 0.00 0.00 98 985.4
20260506023002 53 0.0 0.0 0.00 0.00 0.00 97 985.4
20260506021502 54 0.0 0.0 0.00 0.00 0.00 95 985.5
20260506020002 54 0.0 0.0 0.00 0.00 0.00 95 985.5
20260506014502 54 0.0 0.0 0.00 0.00 0.00 93 985.4
20260506013002 55 0.0 0.0 0.00 0.00 0.00 91 985.5
20260506011503 55 0.0 0.0 0.00 0.00 0.00 91 985.5
20260506010002 55 0.0 0.0 0.00 0.00 0.00 89 985.4
20260506004502 56 0.0 0.0 0.00 0.00 0.00 88 985.2
20260506003002 57 0.0 0.0 0.00 0.00 0.00 87 985.1
20260506001502 57 0.0 0.0 0.00 0.00 0.00 87 985.0
20260506000002 57 0.0 0.0 0.00 0.00 0.00 85 985.0
20260505234502 58 0.0 0.0 0.00 0.00 0.00 85 985.1
20260505233002 58 0.0 0.0 0.00 0.00 0.00 84 985.2
20260505231502 59 0.0 0.0 0.00 0.00 0.00 82 985.2
20260505230002 59 0.0 0.0 0.00 0.00 0.00 82 985.3
20260505224502 59 0.0 0.0 0.00 0.00 0.00 81 985.5
20260505223002 60 0.0 0.0 0.00 0.00 0.00 80 985.7
20260505221502 60 0.0 0.0 0.00 0.00 0.00 79 985.7
20260505220002 61 0.0 0.0 0.00 0.00 0.00 78 985.9